Time,TemperatureF,DewpointF,PressureIn,WindDirection,WindDirectionDegrees,WindSpeedMPH,WindSpeedGustMPH,Humidity,HourlyPrecipIn,Conditions,Clouds,dailyrainin,SoftwareType,DateUTC
2013-01-07 00:04:00,41.0,26.6,29.82,NW,314,3.5,-999.9,57,-99.99,,,-99.99,,2013-01-07 05:04:00,
2013-01-07 00:08:00,41.0,26.6,29.82,NW,314,3.5,-999.9,57,-99.99,,,-99.99,,2013-01-07 05:08:00,
2013-01-07 00:14:00,41.0,28.4,29.82,NW,314,3.5,-999.9,61,-99.99,,,-99.99,,2013-01-07 05:14:00,
2013-01-07 00:20:00,41.0,28.4,29.83,WNW,290,4.6,-999.9,61,-99.99,,,-99.99,,2013-01-07 05:20:00,
2013-01-07 00:28:00,41.0,28.4,29.83,WNW,290,4.6,-999.9,61,-99.99,,,-99.99,,2013-01-07 05:28:00,
2013-01-07 00:34:00,41.0,28.4,29.83,NW,321,3.5,-999.9,61,-99.99,,,-99.99,,2013-01-07 05:34:00,
2013-01-07 00:40:00,41.0,28.4,29.83,NW,309,3.5,-999.9,61,-99.99,,,-99.99,,2013-01-07 05:40:00,
2013-01-07 00:47:00,41.0,28.4,29.83,NW,309,3.5,-999.9,61,-99.99,,,-99.99,,2013-01-07 05:47:00,
2013-01-07 00:54:00,39.2,26.6,29.84,NW,317,3.5,-999.9,61,-99.99,,,-99.99,,2013-01-07 05:54:00,
2013-01-07 00:59:00,39.2,26.6,29.84,NW,317,3.5,-999.9,61,-99.99,,,-99.99,,2013-01-07 05:59:00,
2013-01-07 01:08:00,39.2,26.6,29.84,NNW,334,8.1,-999.9,61,-99.99,,,-99.99,,2013-01-07 06:08:00,
2013-01-07 01:43:00,39.2,28.4,29.85,NW,325,2.3,-999.9,65,-99.99,,,-99.99,,2013-01-07 06:43:00,
2013-01-07 01:49:00,39.2,28.4,29.85,NW,325,2.3,-999.9,65,-99.99,,,-99.99,,2013-01-07 06:49:00,
2013-01-07 01:54:00,39.2,28.4,29.86,WNW,291,3.5,-999.9,65,-99.99,,,-99.99,,2013-01-07 06:54:00,
2013-01-07 02:01:00,39.2,26.6,29.86,NW,310,5.8,-999.9,61,-99.99,,,-99.99,,2013-01-07 07:01:00,
2013-01-07 02:09:00,39.2,26.6,29.86,NW,310,5.8,-999.9,61,-99.99,,,-99.99,,2013-01-07 07:09:00,
2013-01-07 02:18:00,39.2,28.4,29.86,WNW,285,4.6,-999.9,65,-99.99,,,-99.99,,2013-01-07 07:18:00,
2013-01-07 02:26:00,39.2,28.4,29.86,WNW,298,10.4,-999.9,65,-99.99,,,-99.99,,2013-01-07 07:26:00,
2013-01-07 02:34:00,39.2,28.4,29.87,NW,306,4.6,-999.9,65,-99.99,,,-99.99,,2013-01-07 07:34:00,
2013-01-07 02:40:00,39.2,28.4,29.87,NNW,329,6.9,-999.9,65,-99.99,,,-99.99,,2013-01-07 07:40:00,
2013-01-07 02:48:00,39.2,28.4,29.87,NNW,329,6.9,-999.9,65,-99.99,,,-99.99,,2013-01-07 07:48:00,
2013-01-07 02:54:00,39.2,28.4,29.87,NW,314,11.5,-999.9,65,-99.99,,,-99.99,,2013-01-07 07:54:00,
2013-01-07 03:00:00,39.2,28.4,29.87,NNW,342,6.9,-999.9,65,-99.99,,,-99.99,,2013-01-07 08:00:00,
2013-01-07 03:08:00,39.2,28.4,29.87,NNW,342,6.9,-999.9,65,-99.99,,,-99.99,,2013-01-07 08:08:00,
2013-01-07 03:14:00,39.2,28.4,29.87,NNW,334,5.8,-999.9,65,-99.99,,,-99.99,,2013-01-07 08:14:00,
2013-01-07 03:20:00,39.2,28.4,29.87,NW,314,10.4,-999.9,65,-99.99,,,-99.99,,2013-01-07 08:20:00,
2013-01-07 03:27:00,39.2,28.4,29.87,NW,314,10.4,-999.9,65,-99.99,,,-99.99,,2013-01-07 08:27:00,
2013-01-07 03:34:00,39.2,28.4,29.87,NW,313,5.8,-999.9,65,-99.99,,,-99.99,,2013-01-07 08:34:00,
2013-01-07 03:40:00,39.2,28.4,29.87,WNW,298,6.9,-999.9,65,-99.99,,,-99.99,,2013-01-07 08:40:00,
2013-01-07 03:48:00,39.2,28.4,29.87,WNW,298,6.9,-999.9,65,-99.99,,,-99.99,,2013-01-07 08:48:00,
2013-01-07 03:54:00,39.2,28.4,29.88,NW,304,12.7,-999.9,65,-99.99,,,-99.99,,2013-01-07 08:54:00,
2013-01-07 04:00:00,39.2,28.4,29.88,NW,305,9.2,-999.9,65,-99.99,,,-99.99,,2013-01-07 09:00:00,
2013-01-07 04:07:00,39.2,28.4,29.88,NW,305,9.2,-999.9,65,-99.99,,,-99.99,,2013-01-07 09:07:00,
2013-01-07 04:14:00,39.2,28.4,29.88,NW,306,10.4,-999.9,65,-99.99,,,-99.99,,2013-01-07 09:14:00,
2013-01-07 04:20:00,39.2,28.4,29.89,NNW,342,2.3,-999.9,65,-99.99,,,-99.99,,2013-01-07 09:20:00,
2013-01-07 04:28:00,39.2,28.4,29.89,NNW,342,2.3,-999.9,65,-99.99,,,-99.99,,2013-01-07 09:28:00,
2013-01-07 04:34:00,39.2,28.4,29.89,NW,305,2.3,-999.9,65,-99.99,,,-99.99,,2013-01-07 09:34:00,
2013-01-07 04:40:00,39.2,28.4,29.90,NW,304,5.8,-999.9,65,-99.99,,,-99.99,,2013-01-07 09:40:00,
2013-01-07 04:48:00,39.2,28.4,29.90,NW,304,5.8,-999.9,65,-99.99,,,-99.99,,2013-01-07 09:48:00,
2013-01-07 04:54:00,39.2,28.4,29.90,WNW,285,2.3,-999.9,65,-99.99,,,-99.99,,2013-01-07 09:54:00,
2013-01-07 05:00:00,39.2,28.4,29.90,WNW,300,1.2,-999.9,65,-99.99,,,-99.99,,2013-01-07 10:00:00,
2013-01-07 05:07:00,39.2,28.4,29.90,WNW,300,1.2,-999.9,65,-99.99,,,-99.99,,2013-01-07 10:07:00,
2013-01-07 05:14:00,39.2,28.4,29.91,NW,317,5.8,-999.9,65,-99.99,,,-99.99,,2013-01-07 10:14:00,
2013-01-07 05:20:00,39.2,28.4,29.91,NW,322,5.8,-999.9,65,-99.99,,,-99.99,,2013-01-07 10:20:00,
2013-01-07 05:28:00,39.2,28.4,29.91,NW,322,5.8,-999.9,65,-99.99,,,-99.99,,2013-01-07 10:28:00,
2013-01-07 05:34:00,39.2,28.4,29.92,NW,322,6.9,-999.9,65,-99.99,,,-99.99,,2013-01-07 10:34:00,
2013-01-07 05:40:00,39.2,28.4,29.93,NNW,342,9.2,-999.9,65,-99.99,,,-99.99,,2013-01-07 10:40:00,
2013-01-07 05:48:00,39.2,28.4,29.93,NNW,342,9.2,-999.9,65,-99.99,,,-99.99,,2013-01-07 10:48:00,
2013-01-07 05:54:00,39.2,28.4,29.93,WNW,293,6.9,-999.9,65,-99.99,,,-99.99,,2013-01-07 10:54:00,
2013-01-07 06:00:00,39.2,28.4,29.94,NW,310,4.6,-999.9,65,-99.99,,,-99.99,,2013-01-07 11:00:00,
2013-01-07 06:08:00,39.2,28.4,29.94,NW,310,4.6,-999.9,65,-99.99,,,-99.99,,2013-01-07 11:08:00,
2013-01-07 06:13:00,39.2,28.4,29.94,NW,305,2.3,-999.9,65,-99.99,,,-99.99,,2013-01-07 11:13:00,
2013-01-07 06:20:00,39.2,28.4,29.95,NW,309,6.9,-999.9,65,-99.99,,,-99.99,,2013-01-07 11:20:00,
2013-01-07 06:28:00,39.2,28.4,29.95,NW,309,6.9,-999.9,65,-99.99,,,-99.99,,2013-01-07 11:28:00,
2013-01-07 06:34:00,39.2,28.4,29.96,NW,318,8.1,-999.9,65,-99.99,,,-99.99,,2013-01-07 11:34:00,
2013-01-07 06:40:00,39.2,28.4,29.96,NW,317,8.1,-999.9,65,-99.99,,,-99.99,,2013-01-07 11:40:00,
2013-01-07 06:48:00,39.2,28.4,29.96,NW,317,8.1,-999.9,65,-99.99,,,-99.99,,2013-01-07 11:48:00,
2013-01-07 06:54:00,39.2,28.4,29.97,NNW,334,4.6,-999.9,65,-99.99,,,-99.99,,2013-01-07 11:54:00,
2013-01-07 07:00:00,39.2,28.4,29.97,NNW,334,4.6,-999.9,65,-99.99,,,-99.99,,2013-01-07 12:00:00,
2013-01-07 07:08:00,37.4,28.4,29.97,NW,308,6.9,-999.9,70,-99.99,,,-99.99,,2013-01-07 12:08:00,
2013-01-07 07:14:00,39.2,28.4,29.97,WNW,301,9.2,-999.9,65,-99.99,,,-99.99,,2013-01-07 12:14:00,
2013-01-07 07:20:00,39.2,28.4,29.98,NNE,31,1.2,-999.9,65,-99.99,,,-99.99,,2013-01-07 12:20:00,
2013-01-07 07:28:00,39.2,28.4,29.98,NNE,31,1.2,-999.9,65,-99.99,,,-99.99,,2013-01-07 12:28:00,
2013-01-07 07:34:00,39.2,28.4,29.98,NE,56,0.0,-999.9,65,-99.99,,,-99.99,,2013-01-07 12:34:00,
2013-01-07 07:40:00,39.2,28.4,29.99,East,93,3.5,-999.9,65,-99.99,,,-99.99,,2013-01-07 12:40:00,
2013-01-07 07:47:00,39.2,28.4,29.99,East,93,3.5,-999.9,65,-99.99,,,-99.99,,2013-01-07 12:47:00,
2013-01-07 07:54:00,39.2,28.4,30.00,ESE,102,1.2,-999.9,65,-99.99,,,-99.99,,2013-01-07 12:54:00,
2013-01-07 08:00:00,39.2,28.4,30.00,ESE,102,1.2,-999.9,65,-99.99,,,-99.99,,2013-01-07 13:00:00,
2013-01-07 08:08:00,41.0,30.2,30.00,North,0,0.0,-999.9,65,-99.99,,,-99.99,,2013-01-07 13:08:00,
2013-01-07 08:14:00,41.0,30.2,30.00,SE,126,2.3,-999.9,65,-99.99,,,-99.99,,2013-01-07 13:14:00,
2013-01-07 08:20:00,41.0,30.2,30.00,SE,126,2.3,-999.9,65,-99.99,,,-99.99,,2013-01-07 13:20:00,
2013-01-07 08:28:00,39.2,28.4,30.01,NW,308,6.9,-999.9,65,-99.99,,,-99.99,,2013-01-07 13:28:00,
2013-01-07 08:33:00,39.2,28.4,30.01,NNW,337,6.9,-999.9,65,-99.99,,,-99.99,,2013-01-07 13:33:00,
2013-01-07 08:40:00,39.2,28.4,30.01,NNW,337,6.9,-999.9,65,-99.99,,,-99.99,,2013-01-07 13:40:00,
2013-01-07 08:48:00,39.2,28.4,30.01,NNW,332,9.2,-999.9,65,-99.99,,,-99.99,,2013-01-07 13:48:00,
2013-01-07 08:54:00,41.0,30.2,30.02,NNW,328,6.9,-999.9,65,-99.99,,,-99.99,,2013-01-07 13:54:00,
2013-01-07 09:00:00,41.0,28.4,30.02,NW,326,8.1,-999.9,61,-99.99,,,-99.99,,2013-01-07 14:00:00,
2013-01-07 09:08:00,41.0,28.4,30.02,NW,326,8.1,-999.9,61,-99.99,,,-99.99,,2013-01-07 14:08:00,
2013-01-07 09:14:00,41.0,28.4,30.02,NW,322,8.1,-999.9,61,-99.99,,,-99.99,,2013-01-07 14:14:00,
2013-01-07 09:20:00,41.0,28.4,30.02,NNW,339,5.8,-999.9,61,-99.99,,,-99.99,,2013-01-07 14:20:00,
2013-01-07 09:29:00,41.0,28.4,30.02,NNW,339,5.8,-999.9,61,-99.99,,,-99.99,,2013-01-07 14:29:00,
2013-01-07 09:36:00,41.0,26.6,30.02,NW,311,5.8,-999.9,57,-99.99,,,-99.99,,2013-01-07 14:36:00,
2013-01-07 09:44:00,41.0,26.6,30.03,North,353,11.5,-999.9,57,-99.99,,,-99.99,,2013-01-07 14:44:00,
2013-01-07 09:50:00,42.8,28.4,30.03,North,359,8.1,-999.9,57,-99.99,,,-99.99,,2013-01-07 14:50:00,
2013-01-07 09:58:00,42.8,28.4,30.03,North,359,8.1,-999.9,57,-99.99,,,-99.99,,2013-01-07 14:58:00,
2013-01-07 10:04:00,42.8,26.6,30.03,North,357,8.1,-999.9,53,-99.99,,,-99.99,,2013-01-07 15:04:00,
2013-01-07 10:10:00,42.8,24.8,30.03,NNW,341,16.1,-999.9,49,-99.99,,,-99.99,,2013-01-07 15:10:00,
2013-01-07 10:18:00,42.8,24.8,30.03,NNW,341,16.1,-999.9,49,-99.99,,,-99.99,,2013-01-07 15:18:00,
2013-01-07 10:24:00,41.0,23.0,30.04,North,351,17.3,-999.9,49,-99.99,,,-99.99,,2013-01-07 15:24:00,
2013-01-07 10:30:00,42.8,24.8,30.04,NNW,338,10.4,-999.9,49,-99.99,,,-99.99,,2013-01-07 15:30:00,
2013-01-07 10:37:00,42.8,24.8,30.04,NNW,338,10.4,-999.9,49,-99.99,,,-99.99,,2013-01-07 15:37:00,
2013-01-07 10:43:00,42.8,24.8,30.05,NNW,348,8.1,-999.9,49,-99.99,,,-99.99,,2013-01-07 15:43:00,
2013-01-07 10:50:00,42.8,23.0,30.05,NNW,333,5.8,-999.9,46,-99.99,,,-99.99,,2013-01-07 15:50:00,
2013-01-07 10:58:00,42.8,23.0,30.05,NNW,333,5.8,-999.9,46,-99.99,,,-99.99,,2013-01-07 15:58:00,
2013-01-07 11:04:00,42.8,23.0,30.05,NNW,327,8.1,-999.9,46,-99.99,,,-99.99,,2013-01-07 16:04:00,
2013-01-07 11:10:00,42.8,23.0,30.05,NNW,332,17.3,-999.9,46,-99.99,,,-99.99,,2013-01-07 16:10:00,
2013-01-07 11:18:00,42.8,23.0,30.05,NNW,332,17.3,-999.9,46,-99.99,,,-99.99,,2013-01-07 16:18:00,
2013-01-07 11:24:00,42.8,23.0,30.05,North,353,3.5,-999.9,46,-99.99,,,-99.99,,2013-01-07 16:24:00,
2013-01-07 11:30:00,42.8,23.0,30.05,North,353,3.5,-999.9,46,-99.99,,,-99.99,,2013-01-07 16:30:00,
2013-01-07 11:38:00,42.8,23.0,30.05,North,0,11.5,-999.9,46,-99.99,,,-99.99,,2013-01-07 16:38:00,
2013-01-07 11:44:00,42.8,23.0,30.05,North,357,8.1,-999.9,46,-99.99,,,-99.99,,2013-01-07 16:44:00,
2013-01-07 11:49:00,42.8,23.0,30.05,North,357,8.1,-999.9,46,-99.99,,,-99.99,,2013-01-07 16:49:00,
2013-01-07 11:58:00,42.8,23.0,30.05,North,10,3.5,-999.9,46,-99.99,,,-99.99,,2013-01-07 16:58:00,
2013-01-07 12:04:00,44.6,23.0,30.05,North,355,6.9,-999.9,43,-99.99,,,-99.99,,2013-01-07 17:04:00,
2013-01-07 12:10:00,44.6,23.0,30.05,NNE,16,8.1,-999.9,43,-99.99,,,-99.99,,2013-01-07 17:10:00,
2013-01-07 12:18:00,44.6,23.0,30.05,NNE,16,8.1,-999.9,43,-99.99,,,-99.99,,2013-01-07 17:18:00,
2013-01-07 12:24:00,44.6,23.0,30.06,NNW,343,4.6,-999.9,43,-99.99,,,-99.99,,2013-01-07 17:24:00,
2013-01-07 12:30:00,44.6,23.0,30.05,NNW,329,11.5,-999.9,43,-99.99,,,-99.99,,2013-01-07 17:30:00,
2013-01-07 12:38:00,44.6,23.0,30.05,NNW,329,11.5,-999.9,43,-99.99,,,-99.99,,2013-01-07 17:38:00,
2013-01-07 12:44:00,44.6,23.0,30.06,NNW,337,11.5,-999.9,43,-99.99,,,-99.99,,2013-01-07 17:44:00,
2013-01-07 12:50:00,44.6,23.0,30.06,NNW,340,12.7,-999.9,43,-99.99,,,-99.99,,2013-01-07 17:50:00,
2013-01-07 12:58:00,44.6,23.0,30.06,NNW,340,12.7,-999.9,43,-99.99,,,-99.99,,2013-01-07 17:58:00,
2013-01-07 13:04:00,44.6,23.0,30.06,North,2,4.6,-999.9,43,-99.99,,,-99.99,,2013-01-07 18:04:00,
2013-01-07 13:10:00,44.6,21.2,30.06,North,358,9.2,-999.9,39,-99.99,,,-99.99,,2013-01-07 18:10:00,
2013-01-07 13:18:00,44.6,21.2,30.06,North,358,9.2,-999.9,39,-99.99,,,-99.99,,2013-01-07 18:18:00,
2013-01-07 13:24:00,46.4,23.0,30.06,North,355,5.8,-999.9,40,-99.99,,,-99.99,,2013-01-07 18:24:00,
2013-01-07 13:29:00,46.4,23.0,30.06,North,355,5.8,-999.9,40,-99.99,,,-99.99,,2013-01-07 18:29:00,
2013-01-07 13:38:00,44.6,23.0,30.06,NNW,344,3.5,-999.9,43,-99.99,,,-99.99,,2013-01-07 18:38:00,
2013-01-07 13:44:00,46.4,23.0,30.06,NNW,342,11.5,-999.9,40,-99.99,,,-99.99,,2013-01-07 18:44:00,
2013-01-07 13:50:00,46.4,23.0,30.06,NNW,342,11.5,-999.9,40,-99.99,,,-99.99,,2013-01-07 18:50:00,
2013-01-07 13:58:00,46.4,23.0,30.06,North,6,5.8,-999.9,40,-99.99,,,-99.99,,2013-01-07 18:58:00,
2013-01-07 14:04:00,44.6,21.2,30.07,North,6,4.6,-999.9,39,-99.99,,,-99.99,,2013-01-07 19:04:00,
2013-01-07 14:10:00,44.6,21.2,30.07,NNW,345,8.1,-999.9,39,-99.99,,,-99.99,,2013-01-07 19:10:00,
2013-01-07 14:18:00,44.6,21.2,30.07,NNW,345,8.1,-999.9,39,-99.99,,,-99.99,,2013-01-07 19:18:00,
2013-01-07 14:24:00,44.6,21.2,30.08,North,1,3.5,-999.9,39,-99.99,,,-99.99,,2013-01-07 19:24:00,
2013-01-07 14:30:00,44.6,21.2,30.08,North,1,3.5,-999.9,39,-99.99,,,-99.99,,2013-01-07 19:30:00,
2013-01-07 14:38:00,46.4,21.2,30.08,NNW,328,4.6,-999.9,37,-99.99,,,-99.99,,2013-01-07 19:38:00,
2013-01-07 14:43:00,44.6,21.2,30.09,NNW,332,3.5,-999.9,39,-99.99,,,-99.99,,2013-01-07 19:43:00,
2013-01-07 14:50:00,44.6,21.2,30.09,NNW,332,3.5,-999.9,39,-99.99,,,-99.99,,2013-01-07 19:50:00,
2013-01-07 14:57:00,44.6,19.4,30.09,NNE,22,3.5,-999.9,37,-99.99,,,-99.99,,2013-01-07 19:57:00,
2013-01-07 15:04:00,44.6,19.4,30.09,NNE,15,5.8,-999.9,37,-99.99,,,-99.99,,2013-01-07 20:04:00,
2013-01-07 15:10:00,44.6,21.2,30.09,NW,325,4.6,-999.9,39,-99.99,,,-99.99,,2013-01-07 20:10:00,
2013-01-07 15:18:00,44.6,21.2,30.09,NW,325,4.6,-999.9,39,-99.99,,,-99.99,,2013-01-07 20:18:00,
2013-01-07 15:30:00,44.6,19.4,30.10,NNE,30,6.9,-999.9,37,-99.99,,,-99.99,,2013-01-07 20:30:00,
2013-01-07 15:34:00,44.6,19.4,30.10,NNE,30,6.9,-999.9,37,-99.99,,,-99.99,,2013-01-07 20:34:00,
2013-01-07 15:39:00,44.6,19.4,30.10,NNE,30,6.9,-999.9,37,-99.99,,,-99.99,,2013-01-07 20:39:00,
2013-01-07 15:47:00,44.6,23.0,30.11,NNW,341,8.1,-999.9,43,-99.99,,,-99.99,,2013-01-07 20:47:00,
2013-01-07 15:54:00,44.6,21.2,30.12,NNW,327,3.5,-999.9,39,-99.99,,,-99.99,,2013-01-07 20:54:00,
2013-01-07 16:00:00,44.6,19.4,30.12,WNW,300,2.3,-999.9,37,-99.99,,,-99.99,,2013-01-07 21:00:00,
2013-01-07 16:08:00,44.6,19.4,30.12,WNW,300,2.3,-999.9,37,-99.99,,,-99.99,,2013-01-07 21:08:00,
2013-01-07 16:14:00,44.6,19.4,30.12,NW,316,4.6,-999.9,37,-99.99,,,-99.99,,2013-01-07 21:14:00,
2013-01-07 16:20:00,42.8,19.4,30.13,NNW,342,2.3,-999.9,39,-99.99,,,-99.99,,2013-01-07 21:20:00,
2013-01-07 16:28:00,42.8,19.4,30.13,NNW,342,2.3,-999.9,39,-99.99,,,-99.99,,2013-01-07 21:28:00,
2013-01-07 16:34:00,42.8,19.4,30.13,NNW,330,1.2,-999.9,39,-99.99,,,-99.99,,2013-01-07 21:34:00,
2013-01-07 16:40:00,42.8,19.4,30.14,NNW,333,1.2,-999.9,39,-99.99,,,-99.99,,2013-01-07 21:40:00,
2013-01-07 16:48:00,42.8,19.4,30.14,NNW,333,1.2,-999.9,39,-99.99,,,-99.99,,2013-01-07 21:48:00,
2013-01-07 16:54:00,42.8,19.4,30.14,NNW,337,0.0,-999.9,39,-99.99,,,-99.99,,2013-01-07 21:54:00,
2013-01-07 17:00:00,42.8,19.4,30.15,NW,321,1.2,-999.9,39,-99.99,,,-99.99,,2013-01-07 22:00:00,
2013-01-07 17:08:00,42.8,19.4,30.15,NW,321,1.2,-999.9,39,-99.99,,,-99.99,,2013-01-07 22:08:00,
2013-01-07 17:14:00,42.8,19.4,30.15,NNW,329,1.2,-999.9,39,-99.99,,,-99.99,,2013-01-07 22:14:00,
2013-01-07 17:20:00,42.8,19.4,30.15,NNW,348,0.0,-999.9,39,-99.99,,,-99.99,,2013-01-07 22:20:00,
2013-01-07 17:28:00,42.8,19.4,30.15,NNW,348,0.0,-999.9,39,-99.99,,,-99.99,,2013-01-07 22:28:00,
2013-01-07 17:34:00,42.8,19.4,30.16,NNW,327,1.2,-999.9,39,-99.99,,,-99.99,,2013-01-07 22:34:00,
2013-01-07 17:39:00,42.8,19.4,30.16,NNW,327,1.2,-999.9,39,-99.99,,,-99.99,,2013-01-07 22:39:00,
2013-01-07 17:47:00,41.0,19.4,30.16,NNW,332,3.5,-999.9,42,-99.99,,,-99.99,,2013-01-07 22:47:00,
2013-01-07 17:53:00,41.0,19.4,30.16,NNW,336,2.3,-999.9,42,-99.99,,,-99.99,,2013-01-07 22:53:00,
2013-01-07 17:59:00,41.0,19.4,30.16,NNW,336,2.3,-999.9,42,-99.99,,,-99.99,,2013-01-07 22:59:00,
2013-01-07 18:07:00,41.0,19.4,30.16,NW,323,0.0,-999.9,42,-99.99,,,-99.99,,2013-01-07 23:07:00,
2013-01-07 18:13:00,39.2,21.2,30.16,NW,307,1.2,-999.9,49,-99.99,,,-99.99,,2013-01-07 23:13:00,
2013-01-07 18:19:00,39.2,21.2,30.16,NW,307,1.2,-999.9,49,-99.99,,,-99.99,,2013-01-07 23:19:00,
2013-01-07 18:27:00,39.2,19.4,30.16,NW,326,2.3,-999.9,45,-99.99,,,-99.99,,2013-01-07 23:27:00,
2013-01-07 18:34:00,39.2,19.4,30.16,NW,325,3.5,-999.9,45,-99.99,,,-99.99,,2013-01-07 23:34:00,
2013-01-07 18:40:00,39.2,19.4,30.17,NW,313,1.2,-999.9,45,-99.99,,,-99.99,,2013-01-07 23:40:00,
2013-01-07 18:48:00,39.2,19.4,30.17,NW,313,1.2,-999.9,45,-99.99,,,-99.99,,2013-01-07 23:48:00,
2013-01-07 18:54:00,39.2,19.4,30.17,NW,315,2.3,-999.9,45,-99.99,,,-99.99,,2013-01-07 23:54:00,
2013-01-07 18:59:00,39.2,19.4,30.17,NW,315,2.3,-999.9,45,-99.99,,,-99.99,,2013-01-07 23:59:00,
2013-01-07 19:08:00,39.2,19.4,30.17,NW,324,3.5,-999.9,45,-99.99,,,-99.99,,2013-01-08 00:08:00,
2013-01-07 19:13:00,39.2,19.4,30.18,NNW,332,2.3,-999.9,45,-99.99,,,-99.99,,2013-01-08 00:13:00,
2013-01-07 20:12:00,37.4,21.2,30.18,North,0,0.0,-999.9,52,-99.99,,,-99.99,,2013-01-08 01:12:00,
2013-01-07 20:20:00,37.4,21.2,30.18,North,0,0.0,-999.9,52,-99.99,,,-99.99,,2013-01-08 01:20:00,
2013-01-07 20:28:00,37.4,21.2,30.18,North,0,0.0,-999.9,52,-99.99,,,-99.99,,2013-01-08 01:28:00,
2013-01-07 20:34:00,37.4,19.4,30.18,North,0,0.0,-999.9,48,-99.99,,,-99.99,,2013-01-08 01:34:00,
2013-01-07 20:39:00,37.4,19.4,30.18,North,0,0.0,-999.9,48,-99.99,,,-99.99,,2013-01-08 01:39:00,
2013-01-07 20:48:00,39.2,19.4,30.17,North,0,0.0,-999.9,45,-99.99,,,-99.99,,2013-01-08 01:48:00,
2013-01-07 20:54:00,37.4,19.4,30.18,SSW,201,0.0,-999.9,48,-99.99,,,-99.99,,2013-01-08 01:54:00,
2013-01-07 21:00:00,37.4,19.4,30.18,SSW,201,0.0,-999.9,48,-99.99,,,-99.99,,2013-01-08 02:00:00,
2013-01-07 21:08:00,37.4,21.2,30.18,North,9,0.0,-999.9,52,-99.99,,,-99.99,,2013-01-08 02:08:00,
2013-01-07 21:14:00,37.4,21.2,30.17,North,0,0.0,-999.9,52,-99.99,,,-99.99,,2013-01-08 02:14:00,
2013-01-07 21:20:00,35.6,21.2,30.17,North,0,0.0,-999.9,56,-99.99,,,-99.99,,2013-01-08 02:20:00,
2013-01-07 21:28:00,35.6,21.2,30.17,North,0,0.0,-999.9,56,-99.99,,,-99.99,,2013-01-08 02:28:00,
2013-01-07 21:34:00,35.6,21.2,30.18,North,0,0.0,-999.9,56,-99.99,,,-99.99,,2013-01-08 02:34:00,
2013-01-07 21:39:00,35.6,21.2,30.18,North,0,0.0,-999.9,56,-99.99,,,-99.99,,2013-01-08 02:39:00,
2013-01-07 21:48:00,35.6,21.2,30.17,North,0,0.0,-999.9,56,-99.99,,,-99.99,,2013-01-08 02:48:00,
2013-01-07 21:54:00,35.6,21.2,30.18,North,0,0.0,-999.9,56,-99.99,,,-99.99,,2013-01-08 02:54:00,
2013-01-07 22:00:00,35.6,21.2,30.18,SSW,192,1.2,-999.9,56,-99.99,,,-99.99,,2013-01-08 03:00:00,
2013-01-07 22:08:00,35.6,21.2,30.18,SSW,192,1.2,-999.9,56,-99.99,,,-99.99,,2013-01-08 03:08:00,
2013-01-07 22:14:00,37.4,21.2,30.18,SSW,212,0.0,-999.9,52,-99.99,,,-99.99,,2013-01-08 03:14:00,
2013-01-07 22:19:00,37.4,21.2,30.18,SSW,212,0.0,-999.9,52,-99.99,,,-99.99,,2013-01-08 03:19:00,
2013-01-07 22:28:00,37.4,21.2,30.18,SW,215,0.0,-999.9,52,-99.99,,,-99.99,,2013-01-08 03:28:00,
2013-01-07 22:34:00,37.4,21.2,30.18,North,0,0.0,-999.9,52,-99.99,,,-99.99,,2013-01-08 03:34:00,
2013-01-07 22:39:00,37.4,21.2,30.18,North,0,0.0,-999.9,52,-99.99,,,-99.99,,2013-01-08 03:39:00,
2013-01-07 22:48:00,37.4,21.2,30.18,South,171,3.5,-999.9,52,-99.99,,,-99.99,,2013-01-08 03:48:00,
2013-01-07 22:54:00,37.4,23.0,30.17,SSE,158,5.8,-999.9,56,-99.99,,,-99.99,,2013-01-08 03:54:00,
2013-01-07 23:10:00,35.6,23.0,30.18,North,0,0.0,-999.9,60,-99.99,,,-99.99,,2013-01-08 04:10:00,
2013-01-07 23:18:00,35.6,23.0,30.18,North,0,0.0,-999.9,60,-99.99,,,-99.99,,2013-01-08 04:18:00,
2013-01-07 23:24:00,37.4,23.0,30.17,South,177,1.2,-999.9,56,-99.99,,,-99.99,,2013-01-08 04:24:00,
2013-01-07 23:30:00,37.4,23.0,30.17,SSW,199,0.0,-999.9,56,-99.99,,,-99.99,,2013-01-08 04:30:00,
2013-01-07 23:38:00,37.4,23.0,30.17,SSW,199,0.0,-999.9,56,-99.99,,,-99.99,,2013-01-08 04:38:00,
2013-01-07 23:44:00,37.4,23.0,30.17,North,0,0.0,-999.9,56,-99.99,,,-99.99,,2013-01-08 04:44:00,
2013-01-07 23:50:00,37.4,23.0,30.17,North,0,0.0,-999.9,56,-99.99,,,-99.99,,2013-01-08 04:50:00,
2013-01-07 23:57:00,35.6,23.0,30.17,WNW,300,2.3,-999.9,60,-99.99,,,-99.99,,2013-01-08 04:57:00,